User: anonymous   Login
Location: Unspecified
(0.0000°N, 0.0000°E)
Time: 06:53:09
(UTC+00:00)
Language:

UHF F/O F3 - Orbit

View from above orbital plane
View from above orbital plane
View from above satellite
View from above satellite

Ground track
Ground track

The orbit data is extracted from the following two-line orbital elements,

1 23132U 94035A   16269.12798726 0.00000000  00000-0  00000-0 0    01
2 23132  10.6039  28.9952 0003311 227.0196 132.9647  1.00251097    09
Epoch (UTC): 25 September 2016 03:04:18
Eccentricity: 0.0003311
inclination: 10.6039°
perigee height: 35778 km
apogee height: 35806 km
right ascension of ascending node: 28.9952°
argument of perigee: 227.0196°
revolutions per day: 1.00251097
mean anomaly at epoch: 132.9647°
orbit number at epoch: 0

The dashed part of the orbit path shows where the satellite is in the earth's shadow,  

DLR